AirNav   Phillips 66 Aviation Fuel
 
 1602 users online  

3AU Augusta Municipal Airport
Augusta, Kansas, USA

GOING TO AUGUSTA?


FAA INFORMATION EFFECTIVE 19 JULY 2018

Location

FAA Identifier: 3AU
Lat/Long: 37-40-17.9000N / 097-04-40.3000W
37-40.298333N / 097-04.671667W
37.6716389 / -97.0778611
(estimated)
Elevation: 1328 ft. / 404.8 m (surveyed)
Variation: 04E (2010)
From city: 5 miles W of AUGUSTA, KS
Time zone: UTC -5 (UTC -6 during Standard Time)
Zip code: 67010

Airport Operations

Airport use: Open to the public
Control tower: no
ARTCC: KANSAS CITY CENTER
FSS: WICHITA FLIGHT SERVICE STATION
NOTAMs facility: ICT (NOTAM-D service available)
Attendance: 0600-2200
Wind indicator: no
Segmented circle: yes
Lights: ACTVT HIRL RY 18/36; REIL RYS 18 & 36; VASI RY 36; PAPI RY 18 - CTAF.
Beacon: white-green (lighted land airport)
Operates sunset to sunrise.

Airport Communications

CTAF/UNICOM: 122.8
WX AWOS-3PT: 124.175 (316-733-6696)
WICHITA APPROACH: 134.8
WICHITA DEPARTURE: 134.8
CLEARANCE DELIVERY: 125.0
WX AWOS-3 at 1K1 (6 nm N): 118.3 (316-530-6004)
WX AWOS-3PT at BEC (7 nm W): 119.45 (316-515-7116)
WX ASOS at AAO (8 nm NW): 134.025 (316-636-2541)
WX AWOS-3P at EQA (14 nm NE): 120.875 (316-322-8095)
WX ASOS at ICT (17 nm W): PHONE 316-945-8022

Nearby radio navigation aids

VOR radial/distance  VOR name  Freq  Var
ICTr093/24.4WICHITA VORTAC113.8007E

 
NDB name  Hdg/Dist  Freq  Var  ID
NEWTON153/25.328106EEWK . .-- -.-

Airport Services

Fuel available: 100LL JET-A
SELF SERVE 100 LL; JET A IS FULL SERVICE.
Parking: hangars and tiedowns
Airframe service: MAJOR
Powerplant service: MAJOR
Bottled oxygen: LOW
Bulk oxygen: NONE

Runway Information

Runway 18/36

Dimensions: 4201 x 60 ft. / 1280 x 18 m
Surface: asphalt, in good condition
Weight bearing capacity: 
Single wheel: 12.0
Runway edge lights: high intensity
RUNWAY 18  RUNWAY 36
Latitude: 37-40.642790N37-39.952533N
Longitude: 097-04.639873W097-04.703435W
Elevation: 1328.0 ft.1306.4 ft.
Gradient: 0.4%0.4%
Traffic pattern: leftright
Runway heading: 180 magnetic, 184 true000 magnetic, 004 true
Markings: nonprecision, in good conditionnonprecision, in good condition
Visual slope indicator: 4-light PAPI on left2-box VASI on left (3.00 degrees glide path)
Runway end identifier lights: yesyes
Touchdown point: yes, no lightsyes, no lights
Obstructions: 38 ft. tree, 984 ft. from runway, 165 ft. right of centerline, 20:1 slope to clearnone

Airport Ownership and Management from official FAA records

Ownership: Publicly-owned
Owner: CITY OF AUGUSTA
113 EAST 6TH AVE., BOX 489
AUGUSTA, KS 67010
Phone 316-775-4510
Manager: CODY SIMS
113 EAST 6TH AVE, PO BOX 489
AUGUSTA, KS 67010
Phone (316) 775-4505
ASSISTANT CITY MANAGER

Airport Operational Statistics

Aircraft based on the field: 103
Single engine airplanes: 84
Multi engine airplanes: 15
Jet airplanes: 1
Helicopters: 3
    
Aircraft operations: avg 99/day *
58% local general aviation
42% transient general aviation
* for 12-month period ending 02 November 2017

Additional Remarks

FOR SVC AFT HRS CALL (316)-733-1326.
PAEW MOWING SUMMER MONTHS.
RY ENDS LINE OF SITE OBSTRUCTED BY TERRAIN
CALM WIND RUNWAY IS RUNWAY 18
AIRPORT LINE OFFICE PHONE 316-733 1326

Instrument Procedures

NOTE: All procedures below are presented as PDF files. If you need a reader for these files, you should download the free Adobe Reader.

NOT FOR NAVIGATION. Please procure official charts for flight.
FAA instrument procedures published for use from 19 July 2018 at 0901Z to 16 August 2018 at 0900Z.

 
IAPs - Instrument Approach Procedures
RNAV (GPS) RWY 36   download (199KB)
VOR/DME-A   download (155KB)
NOTE: Special Alternate Minimums apply   download (39KB)
NOTE: Special Take-Off Minimums/Departure Procedures apply   download (147KB)

Other nearby airports with instrument procedures:

1K1 - Lloyd Stearman Field Airport (6 nm N)
KBEC - Beech Factory Airport (7 nm W)
KAAO - Colonel James Jabara Airport (8 nm NW)
KCEA - Cessna Aircraft Field Airport (8 nm W)
KIAB - Mc Connell Air Force Base (9 nm W)
KEQA - El Dorado/Captain Jack Thomas Memorial Airport (14 nm NE)
KICT - Wichita Dwight D Eisenhower National Airport (17 nm W)
 
Loc | Ops | Rwys | IFR | FBO | Links
Com | Nav | Svcs | Stats | Notes

Kansas City Aviation Department
 
Area around 3AU (Augusta Municipal Airport)
 
Road maps at: MapQuest Bing Google
 
Aerial photo
WARNING: Photo may not be current or correct
Aerial photo of 3AU (Augusta Municipal Airport)
Photo taken 27-Aug-2009

Do you have a better or more recent aerial photo of Augusta Municipal Airport that you would like to share? If so, please send us your photo.

 
Sectional chart

 
Airport diagram
CAUTION: Diagram may not be current
Diagram of 3AU (Augusta Municipal Airport)
 
Airport distance calculator
Flying to Augusta Municipal Airport? Find the distance to fly.

From to 3AU

Sunrise and sunset
Times for 23-Jul-2018
 Local
(UTC-5)
 Zulu
(UTC)
Morning civil twilight05:5610:56
Sunrise06:2611:26
Sunset20:4401:44
Evening civil twilight21:1402:14

Current date and time
Zulu (UTC)  23-Jul-2018 18:01:40
Local (UTC-5)  23-Jul-2018 13:01:40
 
METAR
K3AU 231755Z AUTO 06009KT 10SM CLR 29/17 A3010 RMK AO2
K1K1 
6nm N 
231755Z AUTO 36005KT 10SM CLR 29/17 A3011 RMK AO2 T02860172 10288 20198
KBEC 
7nm W 
231755Z AUTO 01011KT 10SM CLR 29/16 A3010 RMK AO2 T02920155 10297 20208
KAAO 
8nm NW 
231754Z AUTO 03009G17KT 10SM CLR 30/16 A3010 RMK AO2 SLP179 T03000161 10306 20200 50005
KIAB 
10nm W 
231756Z AUTO 05011KT 10SM CLR 31/14 A3009 RMK AO2 SLP178 T03060142 10306 20214 50003
KEQA 
14nm NE 
231755Z AUTO 36006KT 10SM CLR A3010 RMK AO2
KICT 
17nm W 
231753Z 35011G19KT 10SM SCT090 SCT150 SCT220 32/16 A3010 RMK AO2 SLP175 T03170161 10322 20228 50004
TAF
KIAB 
10nm W 
231000Z 2310/2416 07006KT 9999 FEW160 QNH2999INS BECMG 2317/2318 02009KT 9999 SCT080 QNH3001INS BECMG 2400/2401 VRB06KT 9999 SCT060 QNH3005INS TX31/2321Z TN21/2312Z
KICT 
17nm W 
231727Z 2318/2418 03004KT P6SM SCT080 FM232300 02005KT P6SM FEW070 FM240700 03004KT P6SM SCT150
NOTAMs
Click for the latest NOTAMs
NOTAMs are issued by the DoD/FAA and will open in a separate window not controlled by AirNav.

 

 
 

FBO, Fuel Providers, and Aircraft Ground Support

  
 Business Name 
 
 Contact 
 
 Services / Description 
 
Fuel Prices
 
Comments
  
Augusta Municipal Airport UNICOM 122.80
316-733-1326
316-733-1327
[web site]
[email]
Augusta Municipal Airport offers ALL the amenities that larger FBO's and Airports do, but without the hassle of the Big City delays, Access issues and headaches! Augusta Municipal is close to downtown Wichita, with established crew rates for Hotels, on demand catering and on site rental and crew cars. Augusta offers quick turn around for aircraft seeking to Gas and Go! Come check us out! You'll be glad you did. www.flyaugustaks.com
More info and photos of Augusta Municipal Airport
 
AirBoss™ fuel program   WSI Pilotbrief   WingPoints™ Rewards   Courtesy car  
 
Phillips 66
100LL Jet A
FS --- $3.54 
SS $4.45 --- 
GUARANTEED
AirBossMEMBER
PRICING
FS --- $3.36 
 
   5 read write
FS=Full service
SS=Self service
Update Fuel Prices
 

Would you like to see your business listed on this page?

 If your business provides an interesting product or service to pilots, flight crews, aircraft, or users of the Augusta Municipal Airport, you should consider listing it here.  To start the listing process, click on the button below
 
Add a business
 

Other Pages about Augusta Municipal Airport

www.flyaugustaks.com
www.augustagov.org/...
 
Update a link
 
Copyright © AirNav, LLC. All rights reserved. Privacy Policy  Contact